Regional Weather Roundup
Issued by NWS

Home | Current Version | Previous Version | Graphics & Text | Print | Product List | Glossary On
Versions: 1 2 3 4 5 6 7 8 9 10 11 12 13 14 15 16 17 18 19 20 21 22 23 24 25 26 27 28 29 30 31 32 33 34 35 36 37 38 39 40 41 42 43 44 45 46 47 48 49 50
000
ASUS45 KSLC 300210
RWRUT

UTAH REGIONAL WEATHER ROUNDUP
NATIONAL WEATHER SERVICE SALT LAKE CITY UT
800 PM MDT FRI JUL 29 2016

UTZ001>011-023>025-300300-

NORTHERN UTAH

CITY           SKY/WX    TMP DP  RH WIND       PRES   REMARKS
BRIGHAM CITY     N/A     94  27   9 S5        29.93S
HILL AFB       CLEAR     92  38  15 SW6       29.98F
LOGAN          CLEAR     89  43  20 N9        29.94F
OGDEN          CLEAR     92  39  15 W7        29.94S
PROVO AIRPORT  PTCLDY    93  43  17 NW10      29.95F
SALT LAKE CITY PTCLDY    98  35  11 N7        29.92S HX  93
VERNAL         CLOUDY    87  40  19 W7        29.98F
WENDOVER       MOCLDY    93  37  14 W16G23    29.95S
HEBER CITY     CLEAR     88  34  14 N5        30.03F

$$

UTZ012>022-026-027-300300-

SOUTHERN/CENTRAL UTAH

CITY           SKY/WX    TMP DP  RH WIND       PRES   REMARKS
BLANDING       PTCLDY    90  30  11 W5        30.10S
BRYCE CANYON   MOCLDY    80  34  19 NW12      30.27F
CEDAR CITY     CLOUDY    86  39  19 NW20G29   30.10R
DELTA          MOCLDY    91  32  12 W9        29.97S
MILFORD        CLOUDY    90  39  16 W10       30.02S
MOAB/CYNLANDS  PTCLDY    98  33  10 NE6       29.90S HX  92
PRICE          MOCLDY    92  32  12 NW12      30.05S
ST GEORGE      CLEAR    102  45  14 NW5       29.83S HX  98

$$

REGIONAL REPORTS     COLORADO/ARIZONA

CITY           SKY/WX    TMP DP  RH WIND       PRES   REMARKS
CRAIG, CO      CLOUDY    79  44  28 SE8       30.07F
GRAND JUNCTION PTCLDY    93  32  11 NW6       29.95F
RIFLE          CLOUDY    90  32  12 SW17      30.01R
MONTROSE       CLOUDY    88  36  15 N9        30.06R
CORTEZ         CLEAR     87  34  15 W3        30.04S
PAGE, AZ       CLOUDY    96  37  12 W5        29.92F HX  91
GRAND CANYON   MOCLDY    77  48  35 S3        30.22F
KINGMAN        MOCLDY   102  46  15 CALM      29.87F HX  98
FLAGSTAFF      CLOUDY    72  43  35 NW6G17    30.22F

$$

REGIONAL REPORTS    NEVADA/IDAHO/WYOMING

CITY           SKY/WX    TMP DP  RH WIND       PRES   REMARKS
LAS VEGAS, NV  MOCLDY   110  38   8 S7        29.68F HX 103
ELY            MOCLDY    78  50  37 S3        30.14F
ELKO           MOSUNNY   96  28   9 NE9       29.97F HX  90
POCATELLO, ID  CLEAR     90  40  17 SW13      29.93F
BURLEY         CLEAR     84  53  34 SW9       29.91F
EVANSTON, WY   CLEAR     82  29  14 NW13      30.19S
ROCK SPRINGS   CLEAR     84  21  10 W18       30.11S
KEMMERER         N/A     79  23  12 W17       30.19S

$$



USA.gov is the U.S. government's official web portal to all federal, state and local government web resources and services.